Regional Weather Roundup
Issued by NWS

Home | Current Version | Previous Version | Text Only | Print | Product List | Glossary Off
Versions: 1 2 3 4 5 6 7 8 9 10 11 12 13 14 15 16 17 18 19 20 21 22 23 24 25 26 27 28 29 30 31 32 33 34 35 36 37 38 39 40 41 42 43 44 45 46 47 48 49 50

000
ASUS43 KBIS 292120
RWRND

NORTH DAKOTA REGIONAL WEATHER ROUNDUP
NATIONAL WEATHER SERVICE BISMARCK ND
400 PM CDT WED OCT 29 2014

NOTE: "FAIR" INDICATES FEW OR NO CLOUDS BELOW 12,000 FEET WITH NO
SIGNIFICANT WEATHER AND/OR OBSTRUCTIONS TO VISIBILITY.


NDZ001>003-009>011-017-292200-
NORTHWEST NORTH DAKOTA

CITY           SKY/WX    TMP DP  RH WIND       PRES   REMARKS
WILLISTON      PTSUNNY   44  36  73 SW9       29.87S
MINOT          CLOUDY    45  31  58 S15       29.85F
MINOT AFB      CLOUDY    45  32  61 SW9       29.85F
$$

NDZ018>021-031>035-040>046-292200-
SOUTHWEST NORTH DAKOTA

CITY           SKY/WX    TMP DP  RH WIND       PRES   REMARKS
BISMARCK       LGT RAIN  50  36  58 S3        29.94F
DICKINSON      CLOUDY    49  39  68 W10       29.89S
GARRISON         N/A     45  32  60 SW8       29.89R
HETTINGER ARPT CLOUDY    56  32  40 W9        29.93F
$$

NDZ004>008-012>016-024-026-027-054-292200-
NORTHEAST NORTH DAKOTA

CITY           SKY/WX    TMP DP  RH WIND       PRES   REMARKS
GRAND FORKS    PTSUNNY   40  27  59 S9        30.03F
GRND FRKS AFB  CLOUDY    41  28  59 S6        30.02F
DEVILS LAKE    CLOUDY    45  28  53 S13       29.93F
$$

NDZ022-023-025-028>030-036>039-047>053-292200-
SOUTHEAST NORTH DAKOTA

CITY           SKY/WX    TMP DP  RH WIND       PRES   REMARKS
FARGO          PTSUNNY   42  29  59 S8        30.05F
JAMESTOWN      CLOUDY    47  31  53 S13       29.97F
$$




USA.gov is the U.S. government's official web portal to all federal, state and local government web resources and services.